• In Uzbekistan
  • List of Countries
  • For 7 days
  • Water Temperature
  • Satellite Maps
  • Weather Map
  • Weather Widgets
  • user-avatar
    Login

    Hourly Weather Malanje

    Today, 17 October, Tuesday

    Time Temperature Precipitation Wind Pressure Humidity
    00:00 +23°C° 0 mm 2 mps 665 mmHg 80%
    01:00 +21°C° 0 mm 2 mps 665 mmHg 84%
    02:00 +20°C° 0 mm 2 mps 665 mmHg 86%
    03:00 +20°C° 0 mm 2 mps 665 mmHg 88%
    04:00 +19°C° 0 mm 2 mps 665 mmHg 90%
    05:00 +20°C° 0 mm 2 mps 665 mmHg 88%
    06:00 +20°C° 0 mm 2 mps 666 mmHg 86%
    07:00 +21°C° 0 mm 2 mps 666 mmHg 83%
    08:00 +25°C° 0 mm 2 mps 667 mmHg 72%
    09:00 +28°C° 0 mm 2 mps 667 mmHg 60%
    10:00 +30°C° 0 mm 2 mps 668 mmHg 49%
    11:00 +32°C° 0 mm 2 mps 667 mmHg 44%
    12:00 +34°C° 0 mm 1 mps 667 mmHg 38%
    13:00 +36°C° 0 mm 1 mps 667 mmHg 33%
    14:00 +34°C° 0 mm 1 mps 666 mmHg 35%
    15:00 +33°C° 0 mm 1 mps 665 mmHg 38%
    16:00 +32°C° 0 mm 1 mps 665 mmHg 40%
    17:00 +30°C° 0 mm 1 mps 665 mmHg 45%
    18:00 +29°C° 0 mm 2 mps 665 mmHg 49%
    19:00 +27°C° 0 mm 2 mps 665 mmHg 53%
    20:00 +26°C° 0 mm 2 mps 665 mmHg 56%
    21:00 +25°C° 0 mm 2 mps 665 mmHg 59%
    22:00 +24°C° 0 mm 3 mps 666 mmHg 62%
    23:00 +22°C° 0 mm 3 mps 665 mmHg 68%

    Tomorrow, 18 October, Wednesday

    Time Temperature Precipitation Wind Pressure Humidity
    00:00 +22°C° 0 mm 3 mps 665 mmHg 75%
    01:00 +21°C° 0 mm 3 mps 665 mmHg 81%
    02:00 +20°C° 0 mm 3 mps 664 mmHg 84%
    03:00 +20°C° 0 mm 3 mps 664 mmHg 87%
    04:00 +19°C° 0 mm 3 mps 664 mmHg 90%
    05:00 +20°C° 0 mm 3 mps 665 mmHg 88%
    06:00 +20°C° 0 mm 3 mps 665 mmHg 86%
    07:00 +20°C° 0 mm 4 mps 666 mmHg 83%
    08:00 +22°C° 0 mm 3 mps 666 mmHg 77%
    09:00 +24°C° 0 mm 3 mps 666 mmHg 71%
    10:00 +26°C° 0 mm 3 mps 667 mmHg 65%
    11:00 +28°C° 0 mm 3 mps 666 mmHg 59%
    12:00 +29°C° 0 mm 3 mps 666 mmHg 52%
    13:00 +31°C° 0 mm 3 mps 666 mmHg 46%
    14:00 +31°C° 0 mm 3 mps 665 mmHg 46%
    15:00 +31°C° 0 mm 3 mps 665 mmHg 46%
    16:00 +31°C° 0 mm 3 mps 664 mmHg 47%
    17:00 +29°C° 0 mm 3 mps 664 mmHg 53%
    18:00 +27°C° 0 mm 3 mps 664 mmHg 59%
    19:00 +25°C° 0 mm 3 mps 665 mmHg 65%
    20:00 +24°C° 0 mm 3 mps 665 mmHg 68%
    21:00 +24°C° 0 mm 3 mps 666 mmHg 70%
    22:00 +22°C° 0 mm 3 mps 666 mmHg 73%
    23:00 +21°C° 0 mm 4 mps 666 mmHg 77%

    Day after tomorrow, 19 October, Thursday

    Time Temperature Precipitation Wind Pressure Humidity
    00:00 +21°C° 0 mm 4 mps 665 mmHg 82%
    01:00 +20°C° 0 mm 4 mps 665 mmHg 86%
    02:00 +20°C° 0 mm 4 mps 665 mmHg 86%
    03:00 +20°C° 0 mm 3 mps 665 mmHg 86%
    04:00 +20°C° 0 mm 3 mps 665 mmHg 87%
    05:00 +20°C° 0 mm 3 mps 665 mmHg 85%
    06:00 +20°C° 0 mm 3 mps 666 mmHg 84%
    07:00 +20°C° 0 mm 3 mps 666 mmHg 83%
    08:00 +22°C° 0 mm 3 mps 667 mmHg 74%
    09:00 +25°C° 0 mm 3 mps 667 mmHg 66%
    10:00 +27°C° 0 mm 3 mps 667 mmHg 57%
    11:00 +29°C° 0 mm 3 mps 667 mmHg 51%
    12:00 +31°C° 0 mm 3 mps 666 mmHg 44%
    13:00 +35°C° 0 mm 3 mps 666 mmHg 37%
    14:00 +34°C° 0 mm 3 mps 665 mmHg 37%
    15:00 +34°C° 0 mm 3 mps 664 mmHg 38%
    16:00 +34°C° 0 mm 3 mps 664 mmHg 38%
    17:00 +31°C° 0 mm 3 mps 664 mmHg 44%
    18:00 +28°C° 0 mm 3 mps 664 mmHg 49%
    19:00 +26°C° 0 mm 4 mps 665 mmHg 55%
    20:00 +25°C° 0 mm 4 mps 665 mmHg 59%
    21:00 +23°C° 0 mm 4 mps 665 mmHg 62%
    22:00 +22°C° 0 mm 4 mps 665 mmHg 65%
    23:00 +22°C° 0.1 mm 4 mps 665 mmHg 71%

    20 October, Friday

    Time Temperature Precipitation Wind Pressure Humidity
    00:00 +21°C° 0.1 mm 3 mps 665 mmHg 77%
    01:00 +20°C° 0.1 mm 3 mps 664 mmHg 82%
    02:00 +20°C° 1.2 mm 3 mps 664 mmHg 86%
    03:00 +19°C° 1.2 mm 3 mps 664 mmHg 90%
    04:00 +19°C° 1.2 mm 3 mps 665 mmHg 93%
    05:00 +19°C° 0.6 mm 3 mps 665 mmHg 92%
    06:00 +19°C° 0.6 mm 2 mps 666 mmHg 91%
    07:00 +19°C° 0.6 mm 2 mps 667 mmHg 89%
    08:00 +23°C° 0.2 mm 2 mps 667 mmHg 76%
    09:00 +25°C° 0.2 mm 2 mps 668 mmHg 64%
    10:00 +28°C° 0.2 mm 2 mps 669 mmHg 51%
    11:00 +30°C° 0 mm 2 mps 668 mmHg 46%
    12:00 +31°C° 0 mm 2 mps 667 mmHg 40%
    13:00 +34°C° 0 mm 2 mps 667 mmHg 35%
    14:00 +34°C° 0 mm 2 mps 666 mmHg 36%
    15:00 +34°C° 0 mm 2 mps 665 mmHg 36%
    16:00 +32°C° 0 mm 2 mps 665 mmHg 37%
    17:00 +30°C° 0 mm 2 mps 665 mmHg 41%
    18:00 +28°C° 0 mm 2 mps 665 mmHg 46%
    19:00 +26°C° 0 mm 2 mps 665 mmHg 51%
    20:00 +25°C° 0 mm 2 mps 665 mmHg 51%
    21:00 +24°C° 0 mm 2 mps 666 mmHg 52%
    22:00 +22°C° 0 mm 3 mps 666 mmHg 53%
    23:00 +23°C° 0 mm 2 mps 665 mmHg 58%

    21 October, Saturday

    Time Temperature Precipitation Wind Pressure Humidity
    00:00 +21°C° 0 mm 2 mps 665 mmHg 64%
    01:00 +20°C° 0 mm 2 mps 664 mmHg 69%
    02:00 +20°C° 0 mm 2 mps 665 mmHg 72%
    03:00 +19°C° 0 mm 2 mps 665 mmHg 76%
    04:00 +20°C° 0 mm 1 mps 665 mmHg 79%
    05:00 +20°C° 0 mm 1 mps 665 mmHg 78%
    06:00 +20°C° 0 mm 2 mps 666 mmHg 76%
    07:00 +21°C° 0 mm 2 mps 666 mmHg 74%
    08:00 +25°C° 0 mm 2 mps 667 mmHg 62%
    09:00 +28°C° 0 mm 2 mps 667 mmHg 51%
    10:00 +31°C° 0 mm 2 mps 668 mmHg 39%
    11:00 +32°C° 0 mm 2 mps 667 mmHg 36%
    12:00 +35°C° 0 mm 2 mps 666 mmHg 33%
    13:00 +37°C° 0 mm 2 mps 666 mmHg 30%
    14:00 +35°C° 0 mm 2 mps 665 mmHg 32%
    15:00 +34°C° 0 mm 2 mps 665 mmHg 35%
    16:00 +32°C° 0 mm 2 mps 664 mmHg 37%
    17:00 +31°C° 0 mm 2 mps 665 mmHg 40%
    18:00 +29°C° 0 mm 2 mps 665 mmHg 43%
    19:00 +27°C° 0 mm 2 mps 665 mmHg 46%
    20:00 +26°C° 0 mm 2 mps 665 mmHg 48%
    21:00 +25°C° 0 mm 2 mps 665 mmHg 51%
    22:00 +24°C° 0 mm 3 mps 666 mmHg 54%
    23:00 +23°C° 0 mm 2 mps 665 mmHg 60%

    22 October, Sunday

    Time Temperature Precipitation Wind Pressure Humidity
    00:00 +21°C° 0 mm 2 mps 665 mmHg 67%
    01:00 +20°C° 0 mm 2 mps 665 mmHg 74%
    02:00 +20°C° 0 mm 2 mps 665 mmHg 76%
    03:00 +19°C° 0 mm 2 mps 665 mmHg 79%
    04:00 +19°C° 0 mm 2 mps 665 mmHg 82%
    05:00 +20°C° 0.1 mm 2 mps 665 mmHg 80%
    06:00 +21°C° 0.1 mm 1 mps 666 mmHg 78%
    07:00 +22°C° 0.1 mm 1 mps 667 mmHg 76%
    08:00 +26°C° 0 mm 1 mps 667 mmHg 64%
    09:00 +30°C° 0 mm 1 mps 668 mmHg 52%
    10:00 +34°C° 0 mm 1 mps 669 mmHg 39%
    11:00 +35°C° 0 mm 1 mps 668 mmHg 36%
    12:00 +37°C° 0 mm 1 mps 667 mmHg 32%
    13:00 +39°C° 0 mm 1 mps 667 mmHg 28%
    14:00 +36°C° 0 mm 1 mps 666 mmHg 31%
    15:00 +35°C° 0 mm 1 mps 665 mmHg 33%
    16:00 +31°C° 0 mm 0 mps 665 mmHg 36%
    17:00 +31°C° 0.1 mm 1 mps 664 mmHg 41%
    18:00 +29°C° 0.1 mm 1 mps 664 mmHg 46%
    19:00 +27°C° 0.1 mm 1 mps 664 mmHg 52%
    20:00 +26°C° 0 mm 1 mps 665 mmHg 53%
    21:00 +25°C° 0 mm 1 mps 665 mmHg 54%
    22:00 +25°C° 0 mm 2 mps 665 mmHg 56%
    23:00 +24°C° 0 mm 2 mps 665 mmHg 60%
    Show more